Regional Weather Roundup
Issued by NWS Jackson, KY

Home | Current Version | Previous Version | Graphics & Text | Print | Product List | Glossary On
Versions: 1 2 3 4 5 6 7 8 9 10 11 12 13 14 15 16 17 18 19 20 21 22 23 24 25 26 27 28 29 30 31 32 33 34 35 36 37 38 39 40 41 42 43 44 45 46 47 48 49 50
000
ASUS43 KJKL 282010
RWRJKL

EAST KENTUCKY HOURLY WEATHER ROUNDUP
NATIONAL WEATHER SERVICE JACKSON KY
300 PM EST WED JAN 28 2015

NOTE: "FAIR" INDICATES FEW OR NO CLOUDS BELOW 12,000 FEET WITH
NO SIGNIFICANT WEATHER AND/OR OBSTRUCTIONS TO VISIBILITY.

* THESE REPORTS ARE NOT UNDER NWS QUALITY CONTROL AND MAY NOT
  REPORT WEATHER SUCH AS PRECIPITATION AND FOG.

KYZ079-080-083-085-087-088-110-112-115-119-120-282100
...EASTERN KENTUCKY...

CITY           SKY/WX    TMP DP  RH WIND       PRES   REMARKS
JACKSON        SUNNY     35  17  47 CALM      30.28F
LONDON         SUNNY     37  17  44 MISG      30.27F
SOMERSET*      SUNNY     37  14  38 E6        30.29F WCI  33
MONTICELLO*    SUNNY     42  13  31 E8        30.29F
MIDDLESBORO*   SUNNY     40  19  42 S3        30.27F
HARLAN APT*    CLEAR     41  19  42 CALM      30.25F
HAZARD APT*    CLEAR     36  19  51 CALM      30.28F
BLACK MTN*       N/A     36  30  80 NE1         N/A
PIKEVILLE APT* SUNNY     32  19  59 CALM      30.28S
BIG SANDY*     CLEAR     33  20  59 E3        30.30F
MOREHEAD APT*  CLEAR     34  16  47 VRB5G12   30.32F WCI  30
$$

KYZ035-036-041-042-044-050-067-078-099-282100
...CENTRAL KENTUCKY...

CITY           SKY/WX    TMP DP  RH WIND       PRES   REMARKS
MT STERLING*   SUNNY     34  19  55 S6        30.30F WCI  29
FLEMING/MASON* SUNNY     31  19  58 SE5       30.32S WCI  27
DANVILLE*      SUNNY     34  19  55 SE6       30.28F WCI  29
RICHMOND*      SUNNY     37  19  48 SE3       30.28F
LEXINGTON      SUNNY     35  18  49 SE7       30.28F WCI  29
FRANKFORT      SUNNY     36  18  48 SE9       30.26F WCI  29
$$

KYZ091>093-OHZ055-061-077-WVZ005-015-034-035-042-282100
...SOUTHERN OHIO/WEST VIRGINIA...

CITY           SKY/WX    TMP DP  RH WIND       PRES   REMARKS
COVINGTON      MOSUNNY   35  18  49 SE9       30.26F WCI  28
COLUMBUS       PTSUNNY   25  13  60 SE3       30.31F
DAYTON         PTSUNNY   29  16  58 SE10      30.27F WCI  20
WILMINGTON     MOSUNNY   29  17  61 S7        30.27F WCI  22
HUNTINGTON     SUNNY     33  17  51 CALM      30.33S
CHARLESTON     MOSUNNY   31  13  47 CALM      30.32F
PINEVILLE*     SUNNY     38  23  55 MISG      30.29S
BECKLEY        SUNNY     28  15  58 NW5       30.20F WCI  23
BLUEFIELD      SUNNY     34  15  46 VRB3      30.18S
$$

VAZ002-007-008-TNZ017-027-036-066-071-282100
...SOUTHWEST VIRGINIA/EAST TENNESSEE...

CITY           SKY/WX    TMP DP  RH WIND       PRES   REMARKS
WISE*          SUNNY     36  19  51 NW3       30.22R
JONESVILLE*    CLEAR     39  16  38 CALM      30.29S
ABINGDON*      SUNNY     37  20  50 W5        30.23S WCI  33
BRISTOL        SUNNY     37  18  46 VRB3      30.27S
KNOXVILLE      MOSUNNY   42  14  32 N3        30.27
OAK RIDGE      SUNNY     43  11  27 CALM      30.29F
CROSSVILLE     SUNNY     43  11  27 SE7       30.23F
NASHVILLE      MOSUNNY   49  24  37 SE8       30.25F
$$

...KEY TO REMARKS...
VSB - VISIBILITY IN MILES
WCI - WIND CHILL INDEX
HX  - HEAT INDEX

$$



USA.gov is the U.S. government's official web portal to all federal, state and local government web resources and services.